Weather History for KTVR - March, 2012

Change the Weather History Date:

Saturday, March 3, 2012

  Actual Average Record
Temperature  
Mean Temperature 49 °F 54 °F  
Max Temperature 57 °F 65 °F 83 °F (1953)
Min Temperature 41 °F 43 °F 11 °F (1980)
Degree Days  
Heating Degree Days 16 11  
Month to date heating degree days 16 35  
Since 1 July heating degree days 1710 2011  
Cooling Degree Days 0 0  
Month to date cooling degree days 18 0  
Year to date cooling degree days 45 9  
Moisture  
Dew Point 33 °F    
Average Humidity 59    
Maximum Humidity 82    
Minimum Humidity 35    
Precipitation  
Precipitation 0.00 in 0.18 in 2.87 in (1979)
Month to date precipitation 1.13 0.56  
Year to date precipitation 11.96 10.90  
Sea Level Pressure  
Sea Level Pressure 30.01 in    
Wind  
Wind Speed 12 mph (North)    
Max Wind Speed 30 mph    
Max Gust Speed 36 mph    
Visibility 10 miles    
Events      
T = Trace of Precipitation, MM = Missing Value Source: NWS Daily Summary

Daily Weather History Graph

Daily Weather History Graph

Search for Another Location

Airport or City:

Trip Planner

Search our weather history database for the weather conditions in past years. The results will help you decide how hot, cold, wet, or windy it might be!

Date:

Astronomy

Mar. 03, 2012 Rise Set
Actual Time 6:28 AM CST 6:03 PM CST
Civil Twilight 6:04 AM CST 6:28 PM CST
Nautical Twilight 5:35 AM CST 6:56 PM CST
Astronomical Twilight 5:07 AM CST 7:25 PM CST
Moon 1:27 PM CST (3/3) 2:52 AM CST (3/3)
Length of Visible Light 12h 24m
Length of Day
11h 34m
Waxing Gibbous, 75% of the Moon is Illuminated
Mar 3
Waxing Gibbous
Mar 8
Full
Mar 14
Last Quarter
Mar 22
New
Mar 30
First Quarter

Hourly Weather History & Observations

Time (CST) Temp. Windchill Dew Point Humidity Pressure Visibility Wind Dir Wind Speed Gust Speed Precip Events Conditions
4:53 AM 46.9 °F - 37.0 °F 68% 29.95 in 10.0 mi North 17.3 mph - N/A   Overcast
5:53 AM 46.0 °F 39.3 °F 36.0 °F 68% 29.98 in 10.0 mi North 16.1 mph - N/A   Overcast
6:53 AM 46.0 °F 39.6 °F 36.0 °F 68% 29.99 in 10.0 mi North 15.0 mph 24.2 mph N/A   Overcast
7:53 AM 46.0 °F 39.3 °F 35.1 °F 66% 30.01 in 10.0 mi North 16.1 mph - N/A   Mostly Cloudy
8:53 AM 46.9 °F - 35.1 °F 63% 30.02 in 10.0 mi NNE 15.0 mph - N/A   Partly Cloudy
9:53 AM 51.1 °F - 32.0 °F 48% 30.00 in 10.0 mi NE 15.0 mph - N/A   Partly Cloudy
10:53 AM 55.0 °F - 30.9 °F 40% 29.99 in 10.0 mi NNE 18.4 mph 23.0 mph N/A   Clear
11:53 AM 55.0 °F - 30.0 °F 38% 30.01 in 10.0 mi North 11.5 mph - N/A   Overcast
12:53 PM 54.0 °F - 26.1 °F 34% 29.98 in 10.0 mi NNE 16.1 mph - N/A   Overcast
1:53 PM 54.0 °F - 30.9 °F 41% 29.98 in 10.0 mi North 11.5 mph - N/A   Partly Cloudy
2:53 PM 54.0 °F - 33.1 °F 45% 29.97 in 10.0 mi North 16.1 mph 24.2 mph N/A   Partly Cloudy
3:53 PM 54.0 °F - 33.1 °F 45% 29.98 in 10.0 mi NNE 16.1 mph - N/A   Clear
4:53 PM 55.9 °F - 30.9 °F 39% 29.99 in 10.0 mi North 10.4 mph 20.7 mph N/A   Clear
5:53 PM 51.1 °F - 34.0 °F 52% 30.00 in 10.0 mi North 6.9 mph - N/A   Partly Cloudy
6:53 PM 46.9 °F - 32.0 °F 56% 30.01 in 10.0 mi Calm Calm - N/A   Clear
7:53 PM 43.0 °F 41.3 °F 36.0 °F 76% 30.04 in 10.0 mi WSW 3.5 mph - N/A   Clear
8:53 PM 42.1 °F 40.2 °F 37.0 °F 82% 30.06 in 10.0 mi WSW 3.5 mph - N/A   Clear
9:53 PM 43.0 °F 39.5 °F 37.0 °F 80% 30.08 in 10.0 mi West 5.8 mph - N/A   Clear
10:53 PM 44.1 °F 41.5 °F 35.1 °F 71% 30.11 in 10.0 mi WNW 4.6 mph - N/A   Clear
11:53 PM 44.1 °F 40.8 °F 30.9 °F 60% 30.11 in 10.0 mi WNW 5.8 mph - N/A   Partly Cloudy